Torna al catalogo

CZ-6A DEB

AttivoPO
NORAD 60785·DEBRIS·🇨🇳 China

Lanciato Aug 6, 2024 da Taiyuan Satellite Launch Center

Loading…

Prossimi Passaggi (prossime 24 ore)

TLE

AggiornatoSource: Space-Track

Epoca: Sep 14, 2026, 07:40 UTC

1 60785U 24140FL  26257.31998843  .00000267  00000-0  64717-4 0  9998
2 60785  88.9851 259.6151 0097582 357.3302   2.7369 14.47068266110340

Traccia CZ-6A DEB in tempo reale con AllMySat

Download on the App Store